Weather History for Memphis, TN

Change the Weather History Date:

Thursday, July 3, 2014

  Actual Average Record
Temperature  
Mean Temperature 75 °F 82 °F  
Max Temperature 82 °F 91 °F 100 °F (1970)
Min Temperature 68 °F 73 °F 59 °F (1945)
Degree Days  
Heating Degree Days 0 0  
Month to date heating degree days 0 0  
Since 1 June heating degree days 0 0  
Since 1 July heating degree days 0 0  
Cooling Degree Days 10 17  
Month to date cooling degree days 41 51  
Year to date cooling degree days 789 810  
Since 1 June cooling degree days 478 489  
Growing Degree Days 25 (Base 50)    
Moisture  
Dew Point 60 °F    
Average Humidity 66    
Maximum Humidity 84    
Minimum Humidity 48    
Precipitation  
Precipitation 0.00 in 0.13 in 1.55 in (1989)
Month to date precipitation 0.10 0.40  
Year to date precipitation 39.46 28.31  
Snow  
Snow 0.00 in 0.00 in - ()
Month to date snowfall 0.0 0.0  
Since 1 June snowfall 0.0 0.0  
Since 1 July snowfall 0.0 0.0  
Snow Depth 0.00 in    
Sea Level Pressure  
Sea Level Pressure 30.12 in    
Wind  
Wind Speed 8 mph (North)    
Max Wind Speed 16 mph    
Max Gust Speed 22 mph    
Visibility 10 miles    
Events      
T = Trace of Precipitation, MM = Missing Value Source: NWS Daily Summary

Daily Weather History Graph

Daily Weather History Graph

Search for Another Location

Airport:

Trip Planner

Search our weather history database for the weather conditions in past years. The results will help you decide how hot, cold, wet, or windy it might be!

Date:

Astronomy

Jul. 03, 2014 Rise Set
Actual Time 5:50 AM CDT 8:17 PM CDT
Civil Twilight 5:20 AM CDT 8:47 PM CDT
Nautical Twilight 4:44 AM CDT 9:23 PM CDT
Astronomical Twilight 4:04 AM CDT 10:03 PM CDT
Moon 11:35 AM CDT (7/3) 11:55 PM CDT (7/3)
Length of Visible Light 15h 26m
Length of Day
14h 27m
Waxing Crescent, 33% of the Moon is Illuminated
Jul 3
Waxing Crescent
Jul 5
First Quarter
Jul 12
Full
Jul 18
Last Quarter
Jul 26
New

Hourly Weather History & Observations

Time (CDT) Temp. Heat Index Dew Point Humidity Pressure Visibility Wind Dir Wind Speed Gust Speed Precip Events Conditions
12:54 AM 75.9 °F - 63.0 °F 64% 30.06 in 10.0 mi NNE 3.5 mph - N/A   Clear
1:54 AM 72.0 °F - 64.9 °F 78% 30.05 in 10.0 mi Calm Calm - N/A   Clear
2:54 AM 70.0 °F - 64.0 °F 81% 30.04 in 10.0 mi NW 3.5 mph - N/A   Partly Cloudy
3:54 AM 69.1 °F - 64.0 °F 84% 30.05 in 10.0 mi WNW 3.5 mph - N/A   Partly Cloudy
4:54 AM 70.0 °F - 64.9 °F 84% 30.06 in 10.0 mi NNW 6.9 mph - N/A   Scattered Clouds
5:54 AM 68.0 °F - 62.1 °F 81% 30.09 in 10.0 mi North 9.2 mph - N/A   Scattered Clouds
6:54 AM 69.1 °F - 60.1 °F 73% 30.11 in 10.0 mi North 11.5 mph 18.4 mph N/A   Mostly Cloudy
7:54 AM 71.1 °F - 59.0 °F 66% 30.13 in 10.0 mi North 9.2 mph 18.4 mph N/A   Scattered Clouds
8:54 AM 73.0 °F - 59.0 °F 61% 30.15 in 10.0 mi North 6.9 mph - N/A   Scattered Clouds
9:54 AM 75.9 °F - 59.0 °F 56% 30.15 in 10.0 mi North 8.1 mph - N/A   Scattered Clouds
10:54 AM 78.1 °F - 59.0 °F 52% 30.15 in 10.0 mi North 6.9 mph - N/A   Scattered Clouds
11:54 AM 80.1 °F 80.7 °F 59.0 °F 48% 30.15 in 10.0 mi North 9.2 mph - N/A   Scattered Clouds
12:54 PM 79.0 °F - 57.9 °F 48% 30.15 in 10.0 mi NNW 9.2 mph - N/A   Scattered Clouds
1:54 PM 80.1 °F 80.9 °F 60.1 °F 50% 30.14 in 10.0 mi NNW 9.2 mph - N/A   Scattered Clouds
2:54 PM 81.0 °F 81.3 °F 59.0 °F 47% 30.14 in 10.0 mi North 11.5 mph 17.3 mph N/A   Scattered Clouds
3:54 PM 80.1 °F 80.7 °F 59.0 °F 48% 30.14 in 10.0 mi North 6.9 mph 16.1 mph N/A   Scattered Clouds
4:54 PM 80.1 °F 80.9 °F 60.1 °F 50% 30.14 in 10.0 mi North 11.5 mph 16.1 mph N/A   Scattered Clouds
5:54 PM 79.0 °F - 60.1 °F 52% 30.12 in 10.0 mi NNE 11.5 mph - N/A   Scattered Clouds
6:54 PM 77.0 °F - 59.0 °F 54% 30.12 in 10.0 mi NNE 10.4 mph - N/A   Scattered Clouds
7:54 PM 75.0 °F - 57.9 °F 55% 30.13 in 10.0 mi NNE 10.4 mph - N/A   Scattered Clouds
8:54 PM 73.0 °F - 59.0 °F 61% 30.13 in 10.0 mi NNE 8.1 mph - N/A   Scattered Clouds
9:54 PM 72.0 °F - 59.0 °F 64% 30.16 in 10.0 mi NNE 6.9 mph - N/A   Scattered Clouds
10:54 PM 71.1 °F - 59.0 °F 66% 30.19 in 10.0 mi NNE 4.6 mph - N/A   Partly Cloudy
11:54 PM 70.0 °F - 59.0 °F 68% 30.21 in 10.0 mi NNE 5.8 mph - N/A   Partly Cloudy